Albert Lea, MN

12:00 PM CDT on June 25, 2017 (GMT -0500)
Albert Lea Municipal

Weather History for KAEL - January, 2013

Change the Weather History Date:

Wednesday, January 2, 2013

  Actual Average Record
Temperature  
Mean Temperature 17 °F -  
Max Temperature 26 °F 24 °F 46 °F (1998)
Min Temperature 8 °F 10 °F -16 °F (2014)
Degree Days  
Heating Degree Days 48    
Moisture  
Dew Point 15 °F    
Average Humidity 92    
Maximum Humidity 100    
Minimum Humidity 85    
Precipitation  
Precipitation 0.00 in - - ()
Sea Level Pressure  
Sea Level Pressure 29.98 in    
Wind  
Wind Speed 5 mph (SW)    
Max Wind Speed 13 mph    
Max Gust Speed 20 mph    
Visibility 6 miles    
Events Snow    
Averages and records for this station are not official NWS values.
T = Trace of Precipitation, MM = Missing Value Source: NWS Daily Summary

Daily Weather History Graph

Daily Weather History Graph

Search for Another Location

Airport or City:

Trip Planner

Search our weather history database for the weather conditions in past years. The results will help you decide how hot, cold, wet, or windy it might be!

Date:

Astronomy

Jan. 02, 2013 Rise Set
Actual Time 7:47 AM CST 4:48 PM CST
Civil Twilight 7:14 AM CST 5:21 PM CST
Nautical Twilight 6:38 AM CST 5:57 PM CST
Astronomical Twilight 6:03 AM CST 6:32 PM CST
Moon 10:33 PM CST (1/2) 10:18 AM CST (1/2)
Length of Visible Light 10h 06m
Length of Day
9h 01m
Waning Gibbous, 75% of the Moon is Illuminated
Jan 2
Waning Gibbous
Jan 4
Last Quarter
Jan 11
New
Jan 18
First Quarter
Jan 26
Full

Hourly Weather History & Observations

Time (CST) Temp. Windchill Dew Point Humidity Pressure Visibility Wind Dir Wind Speed Gust Speed Precip Events Conditions
12:12 AM 8.6 °F 2.0 °F 6.8 °F 92% 30.02 in 10.0 mi SSW 3.5 mph - N/A   Clear
12:32 AM 8.6 °F 2.0 °F 6.8 °F 92% 30.01 in 10.0 mi SSW 3.5 mph - N/A   Clear
12:52 AM 8.6 °F -1.3 °F 6.8 °F 92% 30.01 in 10.0 mi SW 5.8 mph - N/A   Clear
1:12 AM 8.6 °F -2.6 °F 5.0 °F 85% 30.01 in 10.0 mi WSW 6.9 mph - N/A   Scattered Clouds
1:33 AM 8.6 °F -2.6 °F 6.8 °F 92% 30.01 in 3.0 mi SW 6.9 mph - N/A   Mostly Cloudy
1:52 AM 10.4 °F 2.2 °F 8.6 °F 92% 30.01 in 1.0 mi WSW 4.6 mph - N/A   Overcast
2:12 AM 10.4 °F 4.0 °F 8.6 °F 92% 30.02 in 1.2 mi WSW 3.5 mph - N/A   Overcast
2:33 AM 12.2 °F 2.9 °F 10.4 °F 92% 30.01 in 1.2 mi SW 5.8 mph - N/A   Overcast
2:52 AM 12.2 °F 4.3 °F 10.4 °F 92% 30.01 in 2.0 mi SW 4.6 mph - N/A   Overcast
3:32 AM 12.2 °F 4.3 °F 10.4 °F 92% 30.00 in 2.0 mi SSW 4.6 mph - N/A   Overcast
3:52 AM 12.2 °F 6.1 °F 10.4 °F 92% 29.99 in 1.2 mi SW 3.5 mph - N/A   Overcast
4:12 AM 12.2 °F 4.3 °F 10.4 °F 92% 29.98 in 1.5 mi SSW 4.6 mph - N/A Snow Light Snow
4:32 AM 12.2 °F 6.1 °F 10.4 °F 92% 29.97 in 1.8 mi South 3.5 mph - N/A Snow Light Snow
4:52 AM 12.2 °F 4.3 °F 10.4 °F 92% 29.97 in 2.5 mi South 4.6 mph - N/A Snow Light Snow
5:12 AM 12.2 °F 2.9 °F 10.4 °F 92% 29.96 in 2.0 mi South 5.8 mph - N/A Snow Light Snow
5:32 AM 12.2 °F 6.1 °F 10.4 °F 92% 29.96 in 3.0 mi South 3.5 mph - N/A   Overcast
6:12 AM 10.4 °F 2.2 °F 8.6 °F 92% 29.95 in 3.0 mi South 4.6 mph - N/A Snow Light Snow
6:32 AM 10.4 °F 2.2 °F 8.6 °F 92% 29.96 in 5.0 mi South 4.6 mph - N/A   Mostly Cloudy
6:52 AM 10.4 °F 2.2 °F 8.6 °F 92% 29.96 in 7.0 mi South 4.6 mph - N/A   Scattered Clouds
7:12 AM 8.6 °F 0.1 °F 8.6 °F 100% 29.96 in 7.0 mi South 4.6 mph - N/A   Scattered Clouds
7:32 AM 8.6 °F 2.0 °F 6.8 °F 92% 29.96 in 7.0 mi South 3.5 mph - N/A   Mostly Cloudy
7:52 AM 8.6 °F - 6.8 °F 92% 29.97 in 5.0 mi Calm Calm - N/A   Overcast
8:12 AM 8.6 °F 0.1 °F 6.8 °F 92% 29.97 in 5.0 mi South 4.6 mph - N/A   Mostly Cloudy
8:32 AM 8.6 °F 2.0 °F 6.8 °F 92% 29.96 in 5.0 mi South 3.5 mph - N/A   Scattered Clouds
8:52 AM 8.6 °F 2.0 °F 6.8 °F 92% 29.96 in 7.0 mi SSW 3.5 mph - N/A   Scattered Clouds
9:12 AM 8.6 °F 0.1 °F 6.8 °F 92% 29.95 in 7.0 mi South 4.6 mph - N/A   Clear
9:32 AM 10.4 °F 2.2 °F 8.6 °F 92% 29.96 in 7.0 mi South 4.6 mph - N/A   Clear
9:52 AM 10.4 °F 2.2 °F 8.6 °F 92% 29.95 in 5.0 mi South 4.6 mph - N/A   Clear
10:12 AM 10.4 °F 0.8 °F 8.6 °F 92% 29.95 in 5.0 mi South 5.8 mph - N/A   Clear
10:32 AM 12.2 °F 1.7 °F 10.4 °F 92% 29.96 in 7.0 mi SSW 6.9 mph - N/A   Clear
10:53 AM 12.2 °F 2.9 °F 10.4 °F 92% 29.95 in 5.0 mi SSW 5.8 mph - N/A   Clear
11:12 AM 12.2 °F 4.3 °F 10.4 °F 92% 29.94 in 5.0 mi SSW 4.6 mph - N/A   Clear
11:32 AM 15.8 °F 7.2 °F 12.2 °F 86% 29.94 in 7.0 mi SW 5.8 mph - N/A   Clear
11:53 AM 15.8 °F 7.2 °F 12.2 °F 86% 29.94 in 7.0 mi SSW 5.8 mph - N/A   Clear
12:12 PM 15.8 °F 5.1 °F 12.2 °F 86% 29.94 in 7.0 mi SW 8.1 mph - N/A   Mostly Cloudy
12:32 PM 15.8 °F 4.2 °F 12.2 °F 86% 29.94 in 7.0 mi SW 9.2 mph - N/A   Overcast
12:53 PM 15.8 °F 8.6 °F 12.2 °F 86% 29.94 in 5.0 mi SW 4.6 mph - N/A   Overcast
1:12 PM 17.6 °F 10.7 °F 14.0 °F 86% 29.93 in 5.0 mi SW 4.6 mph - N/A   Overcast
1:32 PM 17.6 °F 7.3 °F 15.8 °F 93% 29.93 in 7.0 mi SW 8.1 mph - N/A   Mostly Cloudy
1:53 PM 17.6 °F 9.3 °F 15.8 °F 93% 29.94 in 5.0 mi SW 5.8 mph - N/A   Overcast
2:12 PM 19.4 °F 12.8 °F 15.8 °F 86% 29.93 in 5.0 mi WSW 4.6 mph - N/A   Mostly Cloudy
2:32 PM 19.4 °F 14.3 °F 17.6 °F 93% 29.94 in 5.0 mi West 3.5 mph - N/A Snow Light Snow
2:53 PM 19.4 °F 12.8 °F 17.6 °F 93% 29.95 in 4.0 mi WSW 4.6 mph - N/A Snow Light Snow
3:12 PM 21.2 °F 13.6 °F 17.6 °F 86% 29.95 in 4.0 mi WSW 5.8 mph - N/A Snow Light Snow
3:32 PM 21.2 °F 14.9 °F 19.4 °F 93% 29.95 in 3.0 mi WSW 4.6 mph - N/A Snow Light Snow
3:53 PM 21.2 °F 14.9 °F 19.4 °F 93% 29.96 in 5.0 mi WSW 4.6 mph - N/A   Overcast
4:12 PM 21.2 °F - 19.4 °F 93% 29.96 in 5.0 mi Calm Calm - N/A   Overcast
4:32 PM 21.2 °F 16.4 °F 19.4 °F 93% 29.96 in 4.0 mi SSW 3.5 mph - N/A   Overcast
4:52 PM 21.2 °F 16.4 °F 21.2 °F 100% 29.97 in 5.0 mi SSW 3.5 mph - N/A   Overcast
5:12 PM 23.0 °F 17.0 °F 21.2 °F 93% 29.98 in 7.0 mi SSW 4.6 mph - N/A   Overcast
5:33 PM 24.8 °F 20.5 °F 21.2 °F 86% 29.98 in 5.0 mi WSW 3.5 mph - N/A   Overcast
5:52 PM 24.8 °F - 24.8 °F 100% 29.99 in 5.0 mi Calm Calm - N/A   Overcast
6:12 PM 26.6 °F 22.6 °F 24.8 °F 93% 29.99 in 5.0 mi West 3.5 mph - N/A   Overcast
6:33 PM 26.6 °F 22.6 °F 24.8 °F 93% 29.99 in 5.0 mi West 3.5 mph - N/A   Overcast
6:52 PM 26.6 °F 21.2 °F 26.6 °F 100% 30.00 in 7.0 mi WNW 4.6 mph - N/A   Overcast
7:12 PM 26.6 °F 19.1 °F 26.6 °F 100% 30.01 in 7.0 mi WNW 6.9 mph - N/A   Overcast
7:33 PM 26.6 °F 19.1 °F 26.6 °F 100% 30.01 in 7.0 mi WNW 6.9 mph - N/A   Overcast
7:52 PM 26.6 °F 20.0 °F 24.8 °F 93% 30.01 in 7.0 mi WNW 5.8 mph - N/A   Overcast
8:12 PM 26.6 °F 21.2 °F 24.8 °F 93% 30.01 in 7.0 mi WNW 4.6 mph - N/A   Overcast
8:32 PM 26.6 °F 20.0 °F 24.8 °F 93% 30.02 in 5.0 mi WNW 5.8 mph - N/A   Overcast
8:52 PM 26.6 °F 22.6 °F 24.8 °F 93% 30.02 in 10.0 mi West 3.5 mph - N/A   Overcast
9:12 PM 26.6 °F 20.0 °F 24.8 °F 93% 30.02 in 10.0 mi West 5.8 mph - N/A   Overcast
9:32 PM 26.6 °F 18.2 °F 24.8 °F 93% 30.03 in 10.0 mi WNW 8.1 mph - N/A   Overcast
9:52 PM 26.6 °F 16.8 °F 24.8 °F 93% 30.03 in 10.0 mi WNW 10.4 mph 17.3 mph N/A   Overcast
10:12 PM 24.8 °F 15.3 °F 21.2 °F 86% 30.04 in 10.0 mi NW 9.2 mph 17.3 mph N/A   Overcast
10:32 PM 24.8 °F 14.6 °F 21.2 °F 86% 30.05 in 10.0 mi NW 10.4 mph 17.3 mph N/A   Mostly Cloudy
10:52 PM 21.2 °F 10.1 °F 19.4 °F 93% 30.06 in 10.0 mi NW 10.4 mph 18.4 mph N/A   Scattered Clouds
11:12 PM 21.2 °F 11.7 °F 19.4 °F 93% 30.07 in 10.0 mi NW 8.1 mph - N/A   Clear
11:32 PM 21.2 °F 9.5 °F 19.4 °F 93% 30.08 in 10.0 mi WNW 11.5 mph 18.4 mph N/A   Clear
11:52 PM 21.2 °F 8.9 °F 17.6 °F 86% 30.08 in 10.0 mi NW 12.7 mph 19.6 mph N/A   Clear